Los Alamitos, CA

3:25 PM PDT on September 23, 2017 (GMT -0700)
Los Alamitos Army Air Field

Weather History for KSLI - September, 2013

Change the Weather History Date:

Sunday, September 29, 2013

  Actual Average Record
Temperature  
Mean Temperature 68 °F -  
Max Temperature 83 °F 76 °F 104 °F (1999)
Min Temperature 53 °F 62 °F 33 °F (1996)
Cooling Degree Days 2    
Growing Degree Days 18 (Base 50)    
Moisture  
Dew Point 48 °F    
Average Humidity 52    
Maximum Humidity 100    
Minimum Humidity 26    
Precipitation  
Precipitation 0.00 in - - ()
Sea Level Pressure  
Sea Level Pressure 30.02 in    
Wind  
Wind Speed 3 mph (SSW)    
Max Wind Speed 13 mph    
Max Gust Speed -    
Visibility 10 miles    
Events      
Averages and records for this station are not official NWS values.
T = Trace of Precipitation, MM = Missing Value Source: NWS Daily Summary

Daily Weather History Graph

Daily Weather History Graph

Search for Another Location

Airport or City:

Trip Planner

Search our weather history database for the weather conditions in past years. The results will help you decide how hot, cold, wet, or windy it might be!

Date:

Astronomy

Sep. 29, 2013 Rise Set
Actual Time 6:45 AM PDT 6:38 PM PDT
Civil Twilight 6:20 AM PDT 7:03 PM PDT
Nautical Twilight 5:51 AM PDT 7:32 PM PDT
Astronomical Twilight 5:22 AM PDT 8:01 PM PDT
Moon 1:43 AM PDT (9/29) 3:26 PM PDT (9/29)
Length of Visible Light 12h 43m
Length of Day
11h 53m
Waning Crescent, 26% of the Moon is Illuminated
Sep 29
Waning Crescent
Oct 4
New
Oct 11
First Quarter
Oct 18
Full
Oct 26
Last Quarter

Hourly Weather History & Observations

Time (PDT) Temp. Heat Index Dew Point Humidity Pressure Visibility Wind Dir Wind Speed Gust Speed Precip Events Conditions
12:58 AM 58.8 °F - 47.3 °F 66% 30.05 in 10.0 mi Calm Calm - N/A   Clear
1:58 AM 58.8 °F - 48.0 °F 67% 30.04 in 10.0 mi East 4.6 mph - N/A   Clear
2:58 AM 58.1 °F - 49.6 °F 73% 30.04 in 10.0 mi ENE 2.3 mph - N/A   Clear
3:58 AM 57.6 °F - 48.2 °F 71% 30.03 in 10.0 mi NE 3.5 mph - N/A   Clear
4:58 AM 57.9 °F - 40.8 °F 53% 30.03 in 10.0 mi East 3.5 mph - N/A   Clear
5:58 AM 54.3 °F - 42.4 °F 64% 30.05 in 10.0 mi Calm Calm - N/A   Clear
6:58 AM 53.2 °F - 40.8 °F 63% 30.05 in 10.0 mi Calm Calm - N/A   Clear
7:58 AM 60.4 °F - 40.1 °F 47% 30.05 in 10.0 mi East 2.3 mph - N/A   Clear
8:58 AM 67.1 °F - 47.1 °F 49% 30.06 in 10.0 mi Calm Calm - N/A   Clear
9:58 AM 71.8 °F - 54.0 °F 53% 30.07 in 10.0 mi Variable 2.3 mph - N/A   Clear
10:58 AM 76.5 °F - 48.7 °F 38% 30.06 in 10.0 mi SSE 3.5 mph - N/A   Clear
11:58 AM 80.6 °F 80.2 °F 53.1 °F 38% 30.05 in 10.0 mi SW 8.1 mph - N/A   Clear
12:58 PM 81.9 °F - 51.3 °F 34% 30.03 in 10.0 mi SSW 8.1 mph - N/A   Clear
1:58 PM 82.4 °F - 47.5 °F 29% 30.00 in 10.0 mi SSW 11.5 mph - N/A   Clear
2:58 PM 81.1 °F - 48.9 °F 32% 29.99 in 10.0 mi SSW 11.5 mph - N/A   Clear
3:58 PM 80.6 °F - 46.8 °F 30% 29.98 in 10.0 mi SW 12.7 mph - N/A   Clear
4:58 PM 81.0 °F - 50.5 °F 35% 29.97 in 10.0 mi SSW 5.8 mph - N/A   Clear
5:58 PM 79.3 °F - 41.2 °F 26% 29.97 in 10.0 mi WNW 8.1 mph - N/A   Clear
6:58 PM 73.0 °F - 42.1 °F 33% 29.98 in 10.0 mi West 4.6 mph - N/A   Clear
7:58 PM 70.2 °F - 43.9 °F 39% 30.00 in 10.0 mi West 4.6 mph - N/A   Clear
8:58 PM 66.6 °F - 46.2 °F 48% 30.01 in 10.0 mi WSW 2.3 mph - N/A   Clear
9:58 PM 63.3 °F - 55.8 °F 76% 30.01 in 10.0 mi Calm Calm - N/A   Clear
10:58 PM 62.1 °F - 58.5 °F 88% 30.01 in 10.0 mi Calm Calm - N/A   Clear
11:58 PM 60.3 °F - 60.3 °F 100% 30.00 in 10.0 mi Calm Calm - N/A   Clear